Regional Weather Roundup
Issued by NWS

Home | Current Version | Previous Version | Graphics & Text | Print | Product List | Glossary On
Versions: 1 2 3 4 5 6 7 8 9 10 11 12 13 14 15 16 17 18 19 20 21 22 23 24 25 26 27 28 29 30 31 32 33 34 35 36 37 38 39 40 41 42 43 44 45 46 47 48 49 50
000
ASUS43 KTOP 032108
RWRKS

WEATHER ROUNDUP FOR KANSAS
NATIONAL WEATHER SERVICE GOODLAND KS
400 PM CDT WED JUN 03 2015

NOTE:  "FAIR" INDICATES FEW OR NO CLOUDS BELOW 12,000 FEET WITH NO
SIGNIFICANT WEATHER AND/OR OBSTRUCTIONS TO VISIBILITY.

KSZ001>006-013>018-027>032-041>047-032200-
NORTHWEST KANSAS

CITY           SKY/WX    TMP DP  RH WIND       PRES   REMARKS
GOODLAND       MOSUNNY   78  60  53 E12       29.94F
HAYS           CLOUDY    79  64  61 E14       29.86F
HILL CITY      MOSUNNY   81  65  58 E12       29.88F
RUSSELL        CLOUDY    78  67  68 NE12      29.84F
$$

KSZ061>065-074>080-084>089-032200-
SOUTHWEST KANSAS

CITY           SKY/WX    TMP DP  RH WIND       PRES   REMARKS
DODGE CITY     MOSUNNY   91  65  41 S17       29.81F
ELKHART          N/A     87  64  46 N5          N/A
GARDEN CITY    SUNNY     89  60  37 SW8       29.79F
GREAT BEND     PTSUNNY   86  70  58 SE13      29.81F
LIBERAL        MOSUNNY   90  61  37 S6        29.82S
PRATT          MOSUNNY   90  61  37 S22G28    29.82S
$$

KSZ066>073-081>083-090>101-032200-
SOUTHEAST KANSAS

CITY           SKY/WX    TMP DP  RH WIND       PRES   REMARKS
CHANUTE        PTSUNNY   83  69  62 SE17G26   29.87F
COFFEYVILLE    PTSUNNY   86  70  58 SE16G24   29.87F
HUTCHINSON     MOSUNNY   90  66  45 S23G30    29.81S
MEDICINE LODGE   N/A     91  64  40 S20G31    29.78F
NEWTON         SUNNY     88  66  48 S16G26    29.86S
PARSONS        PTSUNNY   85  70  60 S13G21    29.88F
WICHITA INTL   MOSUNNY   90  67  46 S24       29.81F
WICHITA JABRA  SUNNY     87  68  52 S18G31    29.83F
WICHITA MCCONL MOSUNNY   87  69  55 S17G29    29.83F
WINFIELD       MOSUNNY   86  69  56 S20G26    29.85S
$$

KSZ007>012-019>026-033>040-048>060-102>105-032200-
NORTHEAST KANSAS

CITY           SKY/WX    TMP DP  RH WIND       PRES   REMARKS
CONCORDIA      CLOUDY    80  67  64 S8        29.88R
EMPORIA        CLOUDY    82  68  62 SE10      29.88R
LAWRENCE       CLOUDY    73  64  73 SE18      29.91F THUNDER
MANHATTAN      MOSUNNY   81  69  67 SE14      29.86F
MARYSVILLE     CLOUDY    73  70  88 E5        29.89S
OLATHE IND     CLOUDY    74  65  73 VRB3      29.95R
OLATHE EXE     CLOUDY    71  64  78 S8        29.90F
SALINA         CLOUDY    86  68  54 SE13      29.84R
TOPEKA BILLARD PTSUNNY   77  68  73 SE16      29.91R THUNDER
TOPEKA FORBES  PTSUNNY   79  68  69 SE14      29.92R
$$



USA.gov is the U.S. government's official web portal to all federal, state and local government web resources and services.